Time,TemperatureF,DewpointF,PressureIn,WindDirection,WindDirectionDegrees,WindSpeedMPH,WindSpeedGustMPH,Humidity,HourlyPrecipIn,Conditions,Clouds,dailyrainin,SoftwareType,DateUTC
2013-01-29 00:00:00,48.5,44.2,30.14,NW,311,3.0,3.0,85,0.00,,,0.00,Wunderground v.1.15,2013-01-29 05:00:00,
2013-01-29 00:05:00,48.3,44.0,30.13,West,281,2.0,3.0,85,0.00,,,0.00,Wunderground v.1.15,2013-01-29 05:05:00,
2013-01-29 00:10:00,48.2,44.2,30.13,WNW,294,2.0,3.0,86,0.00,,,0.00,Wunderground v.1.15,2013-01-29 05:10:00,
2013-01-29 00:20:00,48.3,44.6,30.13,West,277,2.0,2.0,87,0.00,,,0.00,Wunderground v.1.15,2013-01-29 05:20:00,
2013-01-29 00:25:00,48.4,44.7,30.13,SW,233,3.0,3.0,87,0.00,,,0.00,Wunderground v.1.15,2013-01-29 05:25:00,
2013-01-29 00:30:00,48.5,44.8,30.13,WNW,290,3.0,3.0,87,0.00,,,0.00,Wunderground v.1.15,2013-01-29 05:30:00,
2013-01-29 00:35:00,48.5,44.8,30.13,NW,314,3.0,3.0,87,0.00,,,0.00,Wunderground v.1.15,2013-01-29 05:35:00,
2013-01-29 00:40:00,48.5,44.8,30.13,WNW,291,3.0,5.0,87,0.00,,,0.00,Wunderground v.1.15,2013-01-29 05:40:00,
2013-01-29 00:50:00,48.9,44.9,30.13,NW,308,5.0,5.0,86,0.00,,,0.00,Wunderground v.1.15,2013-01-29 05:50:00,
2013-01-29 01:00:00,48.8,44.5,30.12,NW,311,4.0,5.0,85,0.00,,,0.00,Wunderground v.1.15,2013-01-29 06:00:00,
2013-01-29 01:10:00,48.6,44.6,30.12,NW,315,3.0,11.0,86,0.00,,,0.00,Wunderground v.1.15,2013-01-29 06:10:00,
2013-01-29 01:20:00,48.4,44.1,30.13,WNW,294,4.0,4.0,85,0.00,,,0.00,Wunderground v.1.15,2013-01-29 06:20:00,
2013-01-29 01:30:00,48.4,44.4,30.13,WNW,291,3.0,11.0,86,0.00,,,0.00,Wunderground v.1.15,2013-01-29 06:30:00,
2013-01-29 01:40:00,48.6,44.3,30.13,WNW,291,3.0,11.0,85,0.00,,,0.00,Wunderground v.1.15,2013-01-29 06:40:00,
2013-01-29 01:51:00,48.8,44.5,30.12,NW,310,3.0,3.0,85,0.00,,,0.00,Wunderground v.1.15,2013-01-29 06:51:00,
2013-01-29 02:00:00,49.0,44.7,30.13,WNW,291,3.0,4.0,85,0.00,,,0.00,Wunderground v.1.15,2013-01-29 07:00:00,
2013-01-29 02:10:00,49.1,44.8,30.13,WSW,249,3.0,3.0,85,0.00,,,0.00,Wunderground v.1.15,2013-01-29 07:10:00,
2013-01-29 02:20:00,49.1,44.8,30.13,NW,311,2.0,2.0,85,0.00,,,0.00,Wunderground v.1.15,2013-01-29 07:20:00,
2013-01-29 02:30:00,49.1,45.1,30.13,NW,305,3.0,4.0,86,0.00,,,0.00,Wunderground v.1.15,2013-01-29 07:30:00,
2013-01-29 02:40:00,49.4,45.4,30.13,WNW,283,3.0,3.0,86,0.00,,,0.00,Wunderground v.1.15,2013-01-29 07:40:00,
2013-01-29 02:51:00,49.6,45.3,30.12,NW,312,3.0,3.0,85,0.00,,,0.00,Wunderground v.1.15,2013-01-29 07:51:00,
2013-01-29 03:00:00,49.3,45.3,30.12,NW,306,2.0,5.0,86,0.00,,,0.00,Wunderground v.1.15,2013-01-29 08:00:00,
2013-01-29 03:10:00,48.9,45.2,30.12,WNW,283,3.0,11.0,87,0.00,,,0.00,Wunderground v.1.15,2013-01-29 08:10:00,
2013-01-29 03:20:00,48.6,45.2,30.12,NW,307,3.0,11.0,88,0.00,,,0.00,Wunderground v.1.15,2013-01-29 08:20:00,
2013-01-29 03:30:00,48.7,45.0,30.12,NW,310,3.0,11.0,87,0.00,,,0.00,Wunderground v.1.15,2013-01-29 08:30:00,
2013-01-29 03:40:00,48.6,44.9,30.12,NW,311,3.0,11.0,87,0.00,,,0.00,Wunderground v.1.15,2013-01-29 08:40:00,
2013-01-29 03:51:00,48.5,45.1,30.11,NW,317,2.0,11.0,88,0.00,,,0.00,Wunderground v.1.15,2013-01-29 08:51:00,
2013-01-29 04:00:00,48.4,45.0,30.12,WNW,296,2.0,2.0,88,0.00,,,0.00,Wunderground v.1.15,2013-01-29 09:00:00,
2013-01-29 04:10:00,48.6,45.2,30.11,West,269,3.0,3.0,88,0.00,,,0.00,Wunderground v.1.15,2013-01-29 09:10:00,
2013-01-29 04:20:00,48.8,45.4,30.11,WNW,296,3.0,3.0,88,0.00,,,0.00,Wunderground v.1.15,2013-01-29 09:20:00,
2013-01-29 04:31:00,48.7,45.6,30.11,WNW,290,2.0,2.0,89,0.00,,,0.00,Wunderground v.1.15,2013-01-29 09:31:00,
2013-01-29 04:40:00,48.7,45.3,30.12,WNW,290,3.0,4.0,88,0.00,,,0.00,Wunderground v.1.15,2013-01-29 09:40:00,
2013-01-29 04:50:00,48.8,45.4,30.12,NW,314,3.0,3.0,88,0.00,,,0.00,Wunderground v.1.15,2013-01-29 09:50:00,
2013-01-29 05:01:00,49.2,45.5,30.12,NW,311,3.0,3.0,87,0.00,,,0.00,Wunderground v.1.15,2013-01-29 10:01:00,
2013-01-29 05:10:00,48.9,45.2,30.12,NW,306,2.0,10.0,87,0.00,,,0.00,Wunderground v.1.15,2013-01-29 10:10:00,
2013-01-29 05:20:00,48.8,45.4,30.12,WNW,296,3.0,10.0,88,0.00,,,0.00,Wunderground v.1.15,2013-01-29 10:20:00,
2013-01-29 05:30:00,49.2,45.8,30.13,NW,308,3.0,3.0,88,0.00,,,0.00,Wunderground v.1.15,2013-01-29 10:30:00,
2013-01-29 05:45:00,49.0,45.3,30.13,NW,305,2.0,2.0,87,0.00,,,0.00,Wunderground v.1.15,2013-01-29 10:45:00,
2013-01-29 05:50:00,48.7,45.3,30.13,NW,312,2.0,10.0,88,0.00,,,0.00,Wunderground v.1.15,2013-01-29 10:50:00,
2013-01-29 06:00:00,48.3,44.6,30.12,NW,321,2.0,4.0,87,0.00,,,0.00,Wunderground v.1.15,2013-01-29 11:00:00,
2013-01-29 06:10:00,47.9,44.2,30.12,NW,321,2.0,2.0,87,0.00,,,0.00,Wunderground v.1.15,2013-01-29 11:10:00,
2013-01-29 06:21:00,48.0,44.6,30.12,WNW,283,3.0,3.0,88,0.00,,,0.00,Wunderground v.1.15,2013-01-29 11:21:00,
2013-01-29 06:30:00,47.9,44.8,30.12,WNW,298,2.0,2.0,89,0.00,,,0.00,Wunderground v.1.15,2013-01-29 11:30:00,
2013-01-29 06:40:00,48.1,45.0,30.12,WSW,256,1.0,1.0,89,0.00,,,0.00,Wunderground v.1.15,2013-01-29 11:40:00,
2013-01-29 06:51:00,47.3,44.2,30.12,NW,312,0.0,0.0,89,0.00,,,0.00,Wunderground v.1.15,2013-01-29 11:51:00,
2013-01-29 07:00:00,45.9,42.5,30.13,NW,310,0.0,0.0,88,0.00,,,0.00,Wunderground v.1.15,2013-01-29 12:00:00,
2013-01-29 07:10:00,43.9,40.6,30.13,NW,311,0.0,10.0,88,0.00,,,0.00,Wunderground v.1.15,2013-01-29 12:10:00,
2013-01-29 07:20:00,42.4,39.7,30.14,NW,310,0.0,10.0,90,0.00,,,0.00,Wunderground v.1.15,2013-01-29 12:20:00,
2013-01-29 07:30:00,41.6,39.4,30.14,NW,318,0.0,10.0,92,0.00,,,0.00,Wunderground v.1.15,2013-01-29 12:30:00,
2013-01-29 07:40:00,41.3,39.4,30.14,NW,319,0.0,10.0,93,0.00,,,0.00,Wunderground v.1.15,2013-01-29 12:40:00,
2013-01-29 07:50:00,41.4,39.8,30.15,NW,308,0.0,10.0,94,0.00,,,0.00,Wunderground v.1.15,2013-01-29 12:50:00,
2013-01-29 08:00:00,41.1,39.5,30.14,NW,308,0.0,0.0,94,0.00,,,0.00,Wunderground v.1.15,2013-01-29 13:00:00,
2013-01-29 08:10:00,41.3,40.0,30.14,NW,307,0.0,0.0,95,0.00,,,0.00,Wunderground v.1.15,2013-01-29 13:10:00,
2013-01-29 08:20:00,42.7,41.6,30.14,NW,307,0.0,0.0,96,0.00,,,0.00,Wunderground v.1.15,2013-01-29 13:20:00,
2013-01-29 08:30:00,44.6,43.5,30.14,NW,316,0.0,1.0,96,0.00,,,0.00,Wunderground v.1.15,2013-01-29 13:30:00,
2013-01-29 08:40:00,48.3,45.8,30.15,NW,304,1.0,1.0,91,0.00,,,0.00,Wunderground v.1.15,2013-01-29 13:40:00,
2013-01-29 08:50:00,50.7,45.7,30.15,WNW,289,2.0,2.0,83,0.00,,,0.00,Wunderground v.1.15,2013-01-29 13:50:00,
2013-01-29 09:05:00,52.6,45.9,30.15,WNW,285,2.0,5.0,78,0.00,,,0.00,Wunderground v.1.15,2013-01-29 14:05:00,
2013-01-29 09:10:00,53.0,46.0,30.14,WNW,293,3.0,3.0,77,0.00,,,0.00,Wunderground v.1.15,2013-01-29 14:10:00,
2013-01-29 09:20:00,53.8,46.4,30.15,NW,315,2.0,2.0,76,0.00,,,0.00,Wunderground v.1.15,2013-01-29 14:20:00,
2013-01-29 09:30:00,54.7,46.2,30.15,NW,309,2.0,5.0,73,0.00,,,0.00,Wunderground v.1.15,2013-01-29 14:30:00,
2013-01-29 09:40:00,55.0,46.5,30.14,NW,326,2.0,5.0,73,0.00,,,0.00,Wunderground v.1.15,2013-01-29 14:40:00,
2013-01-29 09:50:00,55.8,46.5,30.15,NW,314,2.0,5.0,71,0.00,,,0.00,Wunderground v.1.15,2013-01-29 14:50:00,
2013-01-29 12:35:00,63.2,50.0,30.12,WSW,258,2.0,2.0,62,0.00,,,0.00,Wunderground v.1.15,2013-01-29 17:35:00,
2013-01-29 12:40:00,63.1,49.4,30.11,NW,320,2.0,2.0,61,0.00,,,0.00,Wunderground v.1.15,2013-01-29 17:40:00,
2013-01-29 12:50:00,64.2,50.0,30.10,ESE,119,1.0,3.0,60,0.00,,,0.00,Wunderground v.1.15,2013-01-29 17:50:00,
2013-01-29 13:00:00,65.1,50.4,30.10,NW,318,2.0,3.0,59,0.00,,,0.00,Wunderground v.1.15,2013-01-29 18:00:00,
2013-01-29 13:11:00,65.3,49.7,30.09,ESE,114,2.0,2.0,57,0.00,,,0.00,Wunderground v.1.15,2013-01-29 18:11:00,
2013-01-29 13:20:00,64.6,49.9,30.09,WSW,255,1.0,1.0,59,0.00,,,0.00,Wunderground v.1.15,2013-01-29 18:20:00,
2013-01-29 13:30:00,63.5,49.8,30.09,NW,315,2.0,2.0,61,0.00,,,0.00,Wunderground v.1.15,2013-01-29 18:30:00,
2013-01-29 13:41:00,63.9,50.2,30.08,NW,318,0.0,8.0,61,0.00,,,0.00,Wunderground v.1.15,2013-01-29 18:41:00,
2013-01-29 13:50:00,63.9,49.7,30.08,West,267,2.0,2.0,60,0.00,,,0.00,Wunderground v.1.15,2013-01-29 18:50:00,
2013-01-29 14:00:00,64.7,50.0,30.07,WNW,285,1.0,1.0,59,0.00,,,0.00,Wunderground v.1.15,2013-01-29 19:00:00,
2013-01-29 14:10:00,65.5,49.4,30.07,NW,318,3.0,3.0,56,0.00,,,0.00,Wunderground v.1.15,2013-01-29 19:10:00,
2013-01-29 14:20:00,66.3,49.6,30.06,NW,310,4.0,4.0,55,0.00,,,0.00,Wunderground v.1.15,2013-01-29 19:20:00,
2013-01-29 14:30:00,66.9,49.2,30.06,West,277,2.0,2.0,53,0.00,,,0.00,Wunderground v.1.15,2013-01-29 19:30:00,
2013-01-29 14:40:00,66.8,49.6,30.06,NE,55,2.0,2.0,54,0.00,,,0.00,Wunderground v.1.15,2013-01-29 19:40:00,
2013-01-29 15:20:00,68.2,49.4,30.06,SW,228,1.0,7.0,51,0.00,,,0.00,Wunderground v.1.15,2013-01-29 20:20:00,
2013-01-29 15:35:00,67.6,49.3,30.05,ENE,63,1.0,7.0,52,0.00,,,0.00,Wunderground v.1.15,2013-01-29 20:35:00,
2013-01-29 15:40:00,67.5,48.7,30.05,ENE,75,1.0,7.0,51,0.00,,,0.00,Wunderground v.1.15,2013-01-29 20:40:00,
2013-01-29 15:50:00,67.1,48.9,30.05,WSW,243,1.0,7.0,52,0.00,,,0.00,Wunderground v.1.15,2013-01-29 20:50:00,
2013-01-29 21:00:00,56.3,52.8,30.03,SW,225,1.0,2.0,88,0.00,,,0.00,Wunderground v.1.15,2013-01-30 02:00:00,
2013-01-29 21:10:00,56.7,52.9,30.03,West,269,2.0,4.0,87,0.00,,,0.00,Wunderground v.1.15,2013-01-30 02:10:00,
2013-01-29 21:20:00,56.6,53.1,30.04,NW,321,2.0,4.0,88,0.00,,,0.00,Wunderground v.1.15,2013-01-30 02:20:00,
2013-01-29 21:30:00,56.3,53.1,30.05,WNW,298,4.0,7.0,89,0.00,,,0.00,Wunderground v.1.15,2013-01-30 02:30:00,
2013-01-29 21:40:00,56.4,53.2,30.04,North,354,3.0,3.0,89,0.00,,,0.00,Wunderground v.1.15,2013-01-30 02:40:00,
2013-01-29 21:50:00,56.5,53.6,30.03,WNW,300,2.0,2.0,90,0.00,,,0.00,Wunderground v.1.15,2013-01-30 02:50:00,
2013-01-29 22:00:00,56.7,53.8,30.03,NNW,331,3.0,3.0,90,0.00,,,0.00,Wunderground v.1.15,2013-01-30 03:00:00,
2013-01-29 22:10:00,56.7,53.8,30.03,WNW,300,3.0,3.0,90,0.00,,,0.00,Wunderground v.1.15,2013-01-30 03:10:00,
2013-01-29 22:20:00,56.8,53.9,30.03,NE,34,3.0,3.0,90,0.00,,,0.00,Wunderground v.1.15,2013-01-30 03:20:00,
2013-01-29 22:30:00,57.0,54.1,30.02,NNW,330,2.0,2.0,90,0.00,,,0.00,Wunderground v.1.15,2013-01-30 03:30:00,
2013-01-29 22:40:00,57.1,54.2,30.02,ENE,63,2.0,2.0,90,0.00,,,0.00,Wunderground v.1.15,2013-01-30 03:40:00,
2013-01-29 22:51:00,57.1,54.2,30.01,West,266,1.0,1.0,90,0.00,,,0.00,Wunderground v.1.15,2013-01-30 03:51:00,
2013-01-29 23:00:00,57.4,54.5,30.01,West,278,2.0,2.0,90,0.00,,,0.00,Wunderground v.1.15,2013-01-30 04:00:00,
2013-01-29 23:10:00,57.4,54.5,30.01,South,173,2.0,2.0,90,0.00,,,0.00,Wunderground v.1.15,2013-01-30 04:10:00,
2013-01-29 23:20:00,57.4,54.2,30.01,NNE,15,1.0,9.0,89,0.00,,,0.00,Wunderground v.1.15,2013-01-30 04:20:00,
2013-01-29 23:30:00,57.7,54.5,30.01,North,354,2.0,9.0,89,0.00,,,0.00,Wunderground v.1.15,2013-01-30 04:30:00,
2013-01-29 23:40:00,58.0,54.8,30.01,West,259,1.0,9.0,89,0.00,,,0.00,Wunderground v.1.15,2013-01-30 04:40:00,
2013-01-29 23:50:00,58.0,54.5,30.01,North,11,2.0,2.0,88,0.00,,,0.00,Wunderground v.1.15,2013-01-30 04:50:00,